Wind_Speed
8 7 6 6 4 3 1 3 3 3 6 9 10 10 10 12 17 17 15 15 16 17 19 17 16 18 16 16 19 16 11 13 16 9 9 10 8 9 4 3 0 1 3
8 8 9 8 7 2 1 2 3 5 6 9 8 9 10 14 13 14 13 12 14 20 22 14 19 20 13 12 7 9 9 12 10 9 8 11 10 8 6 5 4 3 1
8 9 9 8 7 5 1 4 5 5 4 11 11 9 7 10 12 11 11 9 12 10 5 6 6 7 8 6 7 8 6 6 8 8 8 12 12 9 9 9 6 4 3
8 9 9 9 9 7 2 5 8 7 6 10 11 5 1 7 12 14 12 10 9 12 13 11 10 7 7 9 8 7 7 7 7 7 8 11 12 14 12 9 8 7 6
8 10 10 10 10 10 8 6 10 11 12 12 11 10 13 12 13 11 11 11 15 12 9 9 9 7 6 6 7 7 8 6 8 9 9 11 13 13 12 13 11 10 7
7 9 11 11 12 12 11 10 10 12 12 12 14 15 12 11 11 9 10 9 9 8 7 7 8 7 8 8 7 6 7 7 8 10 12 12 12 12 16 14 15 12 9
7 9 11 12 12 13 13 11 10 11 13 12 12 12 12 9 9 8 8 8 9 8 8 8 7 7 8 8 6 7 8 9 10 11 11 10 11 11 13 15 15 11 5
7 9 10 12 12 12 12 12 12 11 12 10 9 8 7 7 6 7 7 7 7 7 6 5 5 6 6 6 7 9 10 11 11 12 11 10 11 12 13 11 10 13 8
7 8 10 11 12 11 11 11 10 10 10 9 8 6 6 6 7 7 6 7 5 4 4 4 4 5 5 6 8 9 9 10 11 11 11 12 13 15 16 18 18 15 11
8 8 8 9 11 10 10 11 9 7 8 8 8 6 6 8 8 6 5 6 5 4 3 3 4 6 7 9 11 10 9 9 9 11 11 13 14 15 17 17 14 14 11
9 9 9 9 8 8 9 9 10 10 9 7 3 1 1 3 3 2 5 6 5 6 6 7 8 8 8 8 10 10 10 11 10 10 12 14 14 15 15 16 18 16 14
10 10 10 10 9 9 9 8 8 9 9 8 7 6 4 4 5 5 6 6 6 8 9 10 9 9 10 10 11 11 11 11 12 13 14 14 14 16 17 17 17 17 17
10 10 10 10 10 10 11 11 10 10 10 10 9 9 8 8 8 9 8 9 10 11 12 13 13 13 14 14 14 13 12 13 13 15 16 16 15 16 18 18 18 18 18
10 9 9 8 8 8 8 9 10 10 11 12 12 12 12 13 12 12 13 14 14 15 16 16 17 16 16 16 16 15 16 16 17 17 19 19 19 20 20 20 21 21 23
13 13 11 10 10 9 8 8 8 9 10 11 11 13 15 15 15 17 17 17 18 19 20 21 20 20 20 19 18 17 18 19 19 19 20 21 23 23 23 23 24 24 26
15 15 13 12 12 12 11 11 10 10 10 10 11 12 12 13 15 17 18 19 20 21 22 22 21 21 21 21 21 20 20 21 21 22 23 24 25 25 25 27 28 28 28
16 15 15 16 16 15 15 14 13 13 13 14 14 15 14 15 17 18 19 20 23 25 25 24 24 23 22 23 23 23 22 20 22 24 26 26 27 28 29 30 30 31 32
16 16 17 18 18 18 17 16 16 16 17 16 17 19 18 18 20 22 23 25 27 28 29 27 25 22 22 23 24 24 24 24 24 25 26 27 27 28 30 32 32 33 33
15 12 16 18 19 18 17 16 16 16 16 16 16 18 20 22 23 26 27 30 31 31 30 31 28 25 23 23 23 24 24 24 26 28 29 28 28 28 30 30 30 31 32
17 17 19 19 18 18 16 14 8 9 12 15 18 19 20 23 24 25 27 28 30 31 30 29 30 29 28 27 26 25 26 26 26 28 30 30 30 30 32 31 30 30 30
19 18 17 18 16 16 15 14 11 13 18 25 30 31 28 23 23 25 25 23 24 27 28 27 27 28 28 28 28 29 29 30 30 30 31 31 31 32 31 32 32 31 32
21 17 16 15 13 13 14 17 17 19 21 23 23 21 22 22 21 20 20 22 22 24 24 25 26 25 25 25 26 28 30 31 32 32 32 32 32 32 32 33 32 31 31
19 18 20 17 15 16 17 18 20 21 20 18 18 19 19 20 20 21 20 19 20 20 20 21 21 21 20 21 22 24 26 27 27 28 30 31 31 32 32 32 32 32 32
16 17 17 18 19 19 19 17 16 14 13 13 13 13 13 13 12 13 13 14 15 15 15 16 17 17 17 18 19 20 22 23 23 24 24 25 27 28 29 31 32 32 32
12 13 15 15 14 12 11 10 9 8 8 8 7 7 8 8 9 10 10 10 11 11 11 13 14 15 14 14 15 16 17 17 18 20 21 23 24 24 24 26 26 26 26
8 9 8 8 7 6 5 4 3 2 3 4 5 5 6 7 7 8 9 9 10 10 10 11 12 14 15 15 16 17 17 18 19 20 21 23 24 24 25 25 25 26 26
Wind_Direction
359 2 11 10 2 1 262 216 168 161 146 148 140 172 182 170 172 180 179 184 194 205 211 208 226 227 238 254 262 258 260 264 261 249 241 235 220 208 215 222 129 40 5
10 18 48 27 18 35 155 172 160 185 171 151 153 120 140 179 163 185 179 206 210 209 204 228 239 222 241 259 243 252 261 282 246 230 212 221 210 207 210 203 198 171 90
21 41 34 38 37 14 110 159 146 155 167 164 144 163 174 168 161 176 186 190 191 169 143 185 179 226 235 231 262 270 255 239 243 255 241 210 205 206 218 206 183 157 171
30 60 50 40 44 50 116 151 155 161 149 139 123 115 110 185 196 195 208 198 214 230 213 212 213 214 235 231 215 217 224 226 254 263 233 210 209 211 200 204 189 187 182
44 70 67 56 53 60 79 123 145 147 137 138 148 161 150 132 123 136 142 167 179 173 186 216 216 209 191 220 218 229 238 223 229 242 234 229 224 226 219 211 198 207 191
64 71 86 70 71 73 70 91 123 131 131 126 133 141 134 125 125 128 135 151 164 172 175 162 177 193 196 213 224 240 244 240 235 243 234 247 252 230 216 213 210 207 191
89 81 93 92 83 84 87 83 94 121 131 124 121 123 133 143 142 141 148 169 166 159 168 177 192 205 215 224 230 239 245 246 246 246 248 251 238 227 215 211 215 208 220
120 108 103 107 103 95 94 103 103 106 115 126 132 138 141 146 156 160 162 155 156 161 174 189 202 213 221 231 238 250 249 247 248 246 243 231 206 209 211 215 208 204 227
137 129 119 118 118 116 112 102 112 120 120 123 136 148 160 162 164 169 171 169 172 199 204 192 223 246 253 254 262 264 263 259 250 238 229 222 211 204 203 201 204 205 218
149 144 140 134 134 138 137 130 132 110 106 128 142 157 154 156 159 160 175 174 180 186 205 251 276 280 271 266 265 265 261 255 251 239 228 218 209 204 204 210 221 219 221
167 162 160 158 152 152 150 149 157 161 162 173 204 210 150 172 173 176 199 205 217 231 251 257 269 270 269 275 269 266 262 256 243 238 224 216 215 212 216 216 216 222 234
183 176 175 175 175 179 180 176 177 179 179 194 202 210 227 251 253 265 274 275 268 259 260 270 271 269 272 276 266 262 258 256 252 233 231 224 221 220 221 222 227 233 237
205 197 192 191 193 191 191 199 209 210 208 208 208 212 222 232 241 254 261 264 271 278 279 279 278 277 279 276 271 262 256 252 246 241 235 232 223 227 230 231 235 239 242
213 216 217 209 207 209 214 217 216 218 226 231 231 232 238 240 242 247 249 251 256 263 267 271 272 271 273 276 278 273 265 256 250 241 239 237 233 233 234 237 238 240 244
216 218 221 223 227 224 221 225 226 229 238 242 244 244 247 251 252 253 258 261 261 260 259 260 264 265 265 266 268 268 260 258 254 251 248 246 246 244 241 241 241 242 246
226 228 230 233 236 239 238 237 236 241 252 252 254 257 258 261 262 266 266 264 264 262 263 264 264 265 264 264 264 266 260 256 255 253 251 251 250 249 250 249 249 248 249
236 241 244 243 245 246 250 252 254 257 255 260 264 266 266 265 264 263 265 266 268 268 266 266 268 269 270 269 268 265 263 260 256 254 255 254 252 251 251 252 252 253 253
237 241 246 249 252 252 254 258 260 258 257 260 264 268 269 267 266 266 266 265 265 268 273 275 275 275 275 275 274 273 270 267 265 262 259 258 259 259 257 258 258 259 259
231 242 258 252 250 252 253 254 261 268 276 282 281 284 285 281 278 275 270 268 270 272 274 278 280 280 277 277 278 277 274 269 269 269 268 267 265 264 263 262 263 263 263
245 258 246 240 242 246 244 240 240 281 294 299 297 289 284 285 283 280 279 278 278 279 279 279 281 280 278 274 274 273 271 270 269 269 270 269 268 268 268 268 266 267 266
260 257 241 238 233 238 237 236 249 267 277 286 285 282 282 284 284 281 279 278 279 279 279 277 274 273 272 271 269 268 267 267 266 267 268 270 271 270 271 269 269 269 269
232 245 258 249 237 230 239 260 272 277 283 286 285 282 288 292 294 287 282 284 286 284 281 280 280 280 280 277 274 273 271 269 268 268 268 268 268 268 269 269 269 267 268
222 224 238 246 244 256 268 275 282 285 283 282 283 286 289 294 295 295 293 289 285 286 288 288 288 287 286 283 282 279 277 276 275 272 271 270 268 267 266 266 267 267 267
229 226 231 239 249 258 268 273 275 277 281 285 290 294 298 301 301 298 295 295 292 291 291 293 292 291 291 289 285 282 281 281 279 276 275 274 274 271 269 268 268 269 269
237 242 245 249 253 260 262 266 273 283 290 294 299 305 310 312 313 311 311 313 313 310 302 296 296 294 290 286 285 284 284 283 278 276 274 273 273 272 271 272 272 273 271
239 239 239 242 244 244 251 261 282 307 324 336 343 339 336 332 328 321 319 320 317 314 309 303 300 298 296 295 292 291 289 287 284 281 278 277 276 274 272 272 272 271 271
Height
1478 1476 1475 1473 1472 1471 1471 1470 1470 1470 1472 1474 1475 1477 1479 1483 1487 1491 1496 1499 1501 1505 1509 1512 1515 1517 1520 1522 1522 1522 1523 1524 1523 1524 1524 1526 1527 1528 1528 1529 1530 1530 1530
1478 1476 1475 1474 1473 1471 1472 1473 1473 1473 1473 1476 1477 1480 1481 1484 1487 1493 1495 1498 1498 1503 1505 1510 1512 1514 1516 1519 1519 1521 1521 1521 1521 1520 1522 1524 1526 1527 1528 1528 1529 1528 1529
1478 1477 1476 1475 1474 1471 1471 1471 1474 1475 1475 1477 1481 1482 1484 1487 1489 1493 1495 1498 1499 1504 1506 1509 1511 1514 1516 1517 1518 1519 1519 1520 1520 1521 1521 1522 1524 1526 1527 1528 1528 1530 1529
1479 1478 1478 1476 1475 1473 1473 1473 1474 1476 1477 1478 1481 1483 1485 1486 1490 1493 1496 1499 1501 1503 1506 1510 1511 1512 1513 1515 1516 1517 1518 1519 1519 1520 1520 1521 1523 1525 1526 1529 1528 1528 1529
1480 1479 1479 1478 1477 1475 1474 1474 1476 1478 1480 1482 1484 1487 1488 1489 1491 1494 1497 1498 1500 1504 1506 1508 1510 1511 1513 1514 1515 1516 1517 1517 1518 1519 1520 1520 1521 1524 1526 1527 1527 1529 1527
1480 1480 1481 1481 1479 1479 1479 1478 1478 1481 1483 1484 1486 1488 1490 1492 1495 1497 1498 1500 1501 1504 1505 1507 1509 1511 1511 1513 1514 1515 1516 1516 1515 1517 1517 1518 1520 1522 1524 1526 1527 1527 1527
1481 1481 1482 1483 1483 1482 1482 1483 1483 1483 1484 1486 1487 1490 1492 1495 1497 1498 1500 1501 1503 1504 1506 1508 1509 1510 1511 1512 1513 1514 1514 1514 1514 1515 1516 1516 1517 1520 1522 1523 1526 1527 1527
1482 1482 1483 1484 1486 1486 1486 1486 1487 1488 1489 1490 1491 1493 1494 1496 1498 1499 1501 1502 1503 1505 1506 1508 1509 1510 1510 1511 1511 1512 1512 1512 1512 1513 1514 1515 1515 1517 1519 1522 1524 1525 1525
1483 1483 1484 1485 1486 1487 1489 1490 1490 1491 1492 1493 1495 1496 1496 1497 1499 1500 1502 1504 1505 1507 1508 1508 1509 1509 1510 1510 1510 1510 1510 1510 1510 1510 1512 1512 1513 1514 1517 1519 1519 1521 1523
1484 1485 1485 1486 1487 1488 1488 1489 1491 1493 1494 1495 1496 1497 1498 1499 1501 1503 1504 1505 1505 1507 1507 1507 1507 1508 1508 1508 1508 1508 1509 1509 1509 1509 1510 1511 1512 1514 1515 1518 1520 1520 1521
1484 1485 1486 1486 1487 1488 1489 1490 1491 1492 1494 1496 1498 1499 1499 1501 1502 1503 1503 1504 1505 1505 1506 1506 1506 1506 1506 1505 1505 1506 1506 1507 1507 1508 1508 1509 1511 1513 1515 1516 1517 1519 1520
1484 1485 1486 1486 1487 1488 1489 1490 1491 1492 1492 1494 1496 1498 1499 1501 1502 1503 1503 1504 1504 1505 1504 1504 1504 1503 1503 1503 1503 1503 1503 1504 1505 1505 1507 1507 1509 1510 1511 1513 1514 1516 1517
1483 1484 1485 1486 1487 1487 1488 1489 1491 1492 1493 1494 1494 1495 1497 1497 1498 1500 1501 1502 1503 1503 1503 1503 1503 1503 1502 1501 1501 1501 1501 1502 1502 1503 1504 1504 1505 1507 1508 1509 1511 1513 1514
1482 1483 1485 1486 1487 1487 1488 1489 1489 1491 1493 1494 1495 1496 1496 1496 1497 1497 1497 1498 1498 1499 1499 1499 1499 1499 1499 1498 1498 1498 1499 1499 1499 1499 1500 1502 1502 1503 1504 1505 1506 1508 1509
1479 1481 1482 1484 1485 1486 1486 1487 1488 1489 1490 1491 1493 1493 1493 1494 1495 1493 1494 1494 1493 1492 1492 1492 1493 1493 1493 1493 1493 1493 1494 1494 1495 1495 1496 1497 1498 1499 1500 1500 1501 1502 1502
1476 1478 1480 1482 1483 1484 1485 1485 1486 1487 1488 1489 1489 1490 1490 1491 1491 1491 1491 1490 1489 1488 1488 1488 1487 1488 1488 1489 1489 1489 1489 1489 1489 1489 1490 1491 1492 1492 1494 1494 1494 1495 1495
1472 1475 1477 1479 1480 1481 1482 1483 1484 1484 1485 1486 1486 1486 1487 1488 1487 1486 1486 1485 1484 1483 1482 1483 1483 1483 1484 1484 1484 1483 1483 1484 1483 1483 1483 1484 1484 1484 1485 1486 1487 1487 1487
1468 1470 1472 1474 1476 1477 1478 1479 1480 1480 1480 1481 1481 1481 1482 1482 1482 1481 1480 1479 1478 1477 1477 1478 1478 1479 1479 1479 1479 1478 1478 1478 1477 1476 1475 1476 1477 1477 1478 1478 1479 1479 1480
1463 1465 1468 1469 1470 1472 1474 1474 1475 1476 1477 1477 1478 1478 1477 1477 1475 1475 1474 1472 1471 1471 1472 1471 1472 1473 1473 1473 1473 1472 1472 1472 1471 1470 1470 1470 1470 1469 1469 1470 1471 1471 1472
1460 1460 1461 1462 1464 1466 1468 1470 1469 1472 1473 1473 1473 1473 1472 1471 1469 1468 1467 1466 1465 1464 1464 1465 1465 1465 1464 1464 1465 1464 1464 1463 1463 1463 1462 1462 1462 1462 1461 1462 1462 1462 1463
1456 1455 1456 1458 1459 1462 1464 1466 1466 1466 1466 1467 1466 1464 1462 1462 1462 1461 1459 1458 1458 1457 1456 1456 1456 1455 1455 1455 1455 1455 1455 1455 1455 1455 1454 1454 1454 1453 1454 1453 1454 1454 1454
1449 1452 1454 1455 1456 1458 1460 1461 1460 1460 1460 1459 1458 1457 1455 1455 1455 1454 1453 1452 1450 1450 1449 1448 1447 1448 1448 1447 1447 1446 1447 1447 1447 1446 1445 1444 1444 1444 1445 1444 1443 1444 1445
1446 1448 1451 1452 1453 1454 1455 1456 1455 1455 1454 1453 1452 1452 1450 1450 1448 1448 1446 1446 1445 1444 1444 1443 1442 1441 1441 1440 1440 1439 1438 1439 1438 1437 1435 1435 1434 1434 1434 1434 1434 1434 1434
1443 1444 1446 1447 1448 1449 1450 1449 1450 1449 1449 1448 1448 1447 1446 1446 1445 1445 1443 1440 1440 1439 1439 1439 1438 1435 1434 1435 1433 1432 1432 1432 1431 1429 1428 1426 1426 1426 1425 1424 1424 1425 1425
1440 1441 1442 1443 1443 1443 1444 1445 1445 1446 1445 1445 1444 1444 1443 1443 1441 1443 1442 1439 1437 1437 1435 1434 1434 1434 1430 1428 1427 1426 1426 1425 1425 1423 1421 1420 1419 1418 1417 1417 1415 1415 1416
1437 1437 1438 1438 1439 1440 1442 1443 1443 1444 1445 1444 1443 1443 1442 1442 1441 1441 1441 1438 1437 1435 1434 1433 1430 1430 1428 1426 1424 1422 1421 1420 1419 1418 1416 1415 1412 1411 1410 1409 1408 1408 1407